Terminal Aerodrome Forecast
Issued by NWS Knoxville/Tri Cities, TN

Home | Current Version | Previous Version | Text Only | Print | Product List | Glossary On
Versions: 1 2 3 4 5 6 7 8 9 10 11 12 13 14 15 16 17 18 19 20 21 22 23 24 25 26 27 28 29 30
000
FTUS44 KMRX 300407 AAA
TAFTRI
TAF AMD
KTRI 300407Z 3004/3024 30010G17KT 6SM -RA OVC025
     FM300900 30010G17KT 4SM -RASN OVC022
     FM301200 30012G18KT P6SM BKN030
     FM301800 29014G21KT P6SM SCT035 BKN070=

USA.gov is the U.S. government's official web portal to all federal, state and local government web resources and services.